TimeEDT,TemperatureF,Dew PointF,Humidity,Sea Level PressureIn,VisibilityMPH,Wind Direction,Wind SpeedMPH,Gust SpeedMPH,PrecipitationIn,Events,Conditions,WindDirDegrees,DateUTC
12:56 AM,50.2,49.1,96,30.30,8.0,SSE,2.3,-,N/A,,Scattered Clouds,160,2013-10-30 04:56:00
1:56 AM,48.4,47.3,96,30.30,7.0,NE,3.5,-,N/A,,Clear,50,2013-10-30 05:56:00
2:56 AM,47.5,46.6,97,30.30,7.0,North,3.5,-,N/A,,Clear,360,2013-10-30 06:56:00
3:32 AM,46.4,46.4,100,30.29,9.0,NNW,2.3,-,N/A,,Partly Cloudy,330,2013-10-30 07:32:00
3:37 AM,46.4,46.4,100,30.29,10.0,NW,2.3,-,N/A,,Unknown,320,2013-10-30 07:37:00
3:47 AM,48.2,46.4,93,30.29,1.4,North,2.3,-,N/A,,Mist,350,2013-10-30 07:47:00
3:53 AM,48.2,46.4,93,30.29,0.9,NNW,2.3,-,N/A,Fog,Fog,340,2013-10-30 07:53:00
3:56 AM,47.3,46.4,97,30.30,0.9,NNW,2.3,-,N/A,Fog,Fog,340,2013-10-30 07:56:00
4:56 AM,48.2,47.7,98,30.30,0.4,South,1.2,-,N/A,Fog,Fog,190,2013-10-30 08:56:00
5:56 AM,47.7,47.5,99,30.31,0.4,West,1.2,-,N/A,Fog,Fog,260,2013-10-30 09:56:00
6:56 AM,47.7,47.1,98,30.31,0.4,Calm,Calm,-,N/A,Fog,Fog,0,2013-10-30 10:56:00
7:43 AM,48.2,48.2,100,30.31,1.8,Calm,Calm,-,N/A,,Mostly Cloudy,0,2013-10-30 11:43:00
7:48 AM,48.2,48.2,100,30.31,2.0,SW,1.2,-,N/A,,Mostly Cloudy,230,2013-10-30 11:48:00
7:53 AM,48.2,48.2,100,30.31,1.8,WSW,1.2,-,N/A,,Mostly Cloudy,250,2013-10-30 11:53:00
7:56 AM,48.7,48.4,99,30.32,1.6,WSW,1.2,-,N/A,,Mostly Cloudy,250,2013-10-30 11:56:00
8:06 AM,48.2,48.2,100,30.31,1.8,SE,1.2,-,N/A,,Scattered Clouds,130,2013-10-30 12:06:00
8:11 AM,50.0,48.2,94,30.31,2.2,Variable,1.2,-,N/A,,Scattered Clouds,0,2013-10-30 12:11:00
8:37 AM,51.8,50.0,94,30.31,1.9,SE,3.5,-,N/A,,Mostly Cloudy,140,2013-10-30 12:37:00
8:53 AM,51.8,51.8,100,30.32,2.5,Variable,1.2,-,N/A,,Scattered Clouds,0,2013-10-30 12:53:00
8:56 AM,52.5,52.0,98,30.33,2.5,Variable,1.2,-,N/A,,Scattered Clouds,0,2013-10-30 12:56:00
9:01 AM,53.6,51.8,94,30.32,3.0,East,1.2,-,N/A,,Partly Cloudy,100,2013-10-30 13:01:00
9:56 AM,58.1,57.4,97,30.34,12.0,South,3.5,-,N/A,,Clear,180,2013-10-30 13:56:00
10:56 AM,66.6,54.9,66,30.33,12.0,South,8.1,-,N/A,,Clear,190,2013-10-30 14:56:00
11:56 AM,70.9,54.1,55,30.32,12.0,WSW,8.1,-,N/A,,Partly Cloudy,240,2013-10-30 15:56:00
12:56 PM,73.8,53.1,48,30.28,12.0,WSW,6.9,-,N/A,,Scattered Clouds,250,2013-10-30 16:56:00
1:56 PM,74.8,53.1,47,30.24,12.0,SSW,9.2,-,N/A,,Partly Cloudy,210,2013-10-30 17:56:00
2:56 PM,75.4,55.4,50,30.22,12.0,West,8.1,16.1,N/A,,Clear,280,2013-10-30 18:56:00
3:56 PM,75.6,54.3,48,30.20,12.0,West,8.1,-,N/A,,Clear,260,2013-10-30 19:56:00
4:56 PM,75.9,54.1,47,30.19,12.0,WSW,5.8,-,N/A,,Clear,240,2013-10-30 20:56:00
5:56 PM,72.5,55.2,54,30.20,12.0,SSW,4.6,-,N/A,,Clear,210,2013-10-30 21:56:00
6:56 PM,63.3,56.5,78,30.22,12.0,SSE,1.2,-,N/A,,Clear,160,2013-10-30 22:56:00
7:56 PM,60.6,56.3,86,30.24,12.0,South,2.3,-,N/A,,Clear,170,2013-10-30 23:56:00
8:56 PM,58.6,56.5,93,30.23,12.0,SSE,1.2,-,N/A,,Clear,150,2013-10-31 00:56:00
9:56 PM,57.7,55.4,92,30.23,11.0,SSE,3.5,-,N/A,,Clear,160,2013-10-31 01:56:00
10:56 PM,56.1,54.1,93,30.24,11.0,SW,1.2,-,N/A,,Clear,220,2013-10-31 02:56:00
11:56 PM,57.0,54.1,90,30.24,12.0,South,3.5,-,N/A,,Clear,190,2013-10-31 03:56:00